Time,TemperatureF,DewpointF,PressureIn,WindDirection,WindDirectionDegrees,WindSpeedMPH,WindSpeedGustMPH,Humidity,HourlyPrecipIn,Conditions,Clouds,dailyrainin,SoftwareType,DateUTC
2013-03-04 00:00:00,6.1,0.9,30.03,NNE,22,0.0,0.0,79,0.00,,,0.00,WUHU21623XXSP,2013-03-04 06:00:00,
2013-03-04 00:05:00,6.6,1.5,30.03,WSW,247,0.0,0.0,79,0.00,,,0.00,WUHU21623XXSP,2013-03-04 06:05:00,
2013-03-04 00:10:00,6.4,1.3,30.03,WSW,247,0.0,0.0,79,0.00,,,0.00,WUHU21623XXSP,2013-03-04 06:10:00,
2013-03-04 00:15:00,6.4,1.3,30.03,WSW,247,0.0,0.0,79,0.00,,,0.00,WUHU21623XXSP,2013-03-04 06:15:00,
2013-03-04 00:20:00,6.4,1.3,30.03,WSW,247,0.0,0.0,79,0.00,,,0.00,WUHU21623XXSP,2013-03-04 06:20:00,
2013-03-04 00:25:00,6.4,1.3,30.03,WSW,247,0.0,0.0,79,0.00,,,0.00,WUHU21623XXSP,2013-03-04 06:25:00,
2013-03-04 00:30:00,6.1,0.9,30.04,WSW,247,0.0,0.0,79,0.00,,,0.00,WUHU21623XXSP,2013-03-04 06:30:00,
2013-03-04 00:35:00,6.4,1.3,30.05,SW,225,0.0,0.0,79,0.00,,,0.00,WUHU21623XXSP,2013-03-04 06:35:00,
2013-03-04 00:40:00,6.6,1.5,30.04,NE,45,0.0,0.0,79,0.00,,,0.00,WUHU21623XXSP,2013-03-04 06:40:00,
2013-03-04 00:45:00,6.6,1.5,30.05,NE,45,0.0,0.0,79,0.00,,,0.00,WUHU21623XXSP,2013-03-04 06:45:00,
2013-03-04 00:50:00,6.6,1.5,30.05,NE,45,0.0,0.0,79,0.00,,,0.00,WUHU21623XXSP,2013-03-04 06:50:00,
2013-03-04 00:55:00,6.4,1.3,30.05,NE,45,0.0,0.0,79,0.00,,,0.00,WUHU21623XXSP,2013-03-04 06:55:00,
2013-03-04 01:00:00,6.1,0.9,30.05,NE,45,0.0,0.0,79,0.00,,,0.00,WUHU21623XXSP,2013-03-04 07:00:00,
2013-03-04 01:05:00,6.4,1.3,30.05,WSW,247,0.0,0.0,79,0.00,,,0.00,WUHU21623XXSP,2013-03-04 07:05:00,
2013-03-04 01:10:00,6.6,1.5,30.06,NNE,22,0.0,0.0,79,0.00,,,0.00,WUHU21623XXSP,2013-03-04 07:10:00,
2013-03-04 01:15:00,6.4,0.7,30.06,NNE,22,0.0,0.0,77,0.00,,,0.00,WUHU21623XXSP,2013-03-04 07:15:00,
2013-03-04 01:20:00,6.1,0.6,30.05,NNE,22,0.0,0.0,78,0.00,,,0.00,WUHU21623XXSP,2013-03-04 07:20:00,
2013-03-04 01:25:00,5.7,0.6,30.06,NNE,22,0.0,0.0,79,0.00,,,0.00,WUHU21623XXSP,2013-03-04 07:25:00,
2013-03-04 01:30:00,6.1,0.9,30.06,NNE,22,0.0,0.0,79,0.00,,,0.00,WUHU21623XXSP,2013-03-04 07:30:00,
2013-03-04 01:35:00,6.6,1.8,30.06,NNE,22,0.0,0.0,80,0.00,,,0.00,WUHU21623XXSP,2013-03-04 07:35:00,
2013-03-04 01:40:00,6.8,1.9,30.06,NNE,22,0.0,0.0,80,0.00,,,0.00,WUHU21623XXSP,2013-03-04 07:40:00,
2013-03-04 01:45:00,7.0,2.1,30.06,NNE,22,0.0,0.0,80,0.00,,,0.00,WUHU21623XXSP,2013-03-04 07:45:00,
2013-03-04 01:50:00,7.0,2.1,30.06,NNE,22,0.0,0.0,80,0.00,,,0.00,WUHU21623XXSP,2013-03-04 07:50:00,
2013-03-04 01:55:00,7.0,2.1,30.05,NNE,22,0.0,0.0,80,0.00,,,0.00,WUHU21623XXSP,2013-03-04 07:55:00,
2013-03-04 02:00:00,7.0,2.1,30.05,NNE,22,0.0,0.0,80,0.00,,,0.00,WUHU21623XXSP,2013-03-04 08:00:00,
2013-03-04 02:05:00,7.2,2.3,30.05,NNE,22,0.0,0.0,80,0.00,,,0.00,WUHU21623XXSP,2013-03-04 08:05:00,
2013-03-04 02:10:00,7.2,2.3,30.05,NNE,22,0.0,0.0,80,0.00,,,0.00,WUHU21623XXSP,2013-03-04 08:10:00,
2013-03-04 02:15:00,7.0,2.1,30.05,NNE,22,0.0,0.0,80,0.00,,,0.00,WUHU21623XXSP,2013-03-04 08:15:00,
2013-03-04 02:20:00,7.2,2.3,30.05,NNW,337,0.0,0.0,80,0.00,,,0.00,WUHU21623XXSP,2013-03-04 08:20:00,
2013-03-04 02:25:00,7.7,2.8,30.04,West,270,0.0,0.0,80,0.00,,,0.00,WUHU21623XXSP,2013-03-04 08:25:00,
2013-03-04 02:30:00,7.9,3.0,30.05,West,270,0.0,0.0,80,0.00,,,0.00,WUHU21623XXSP,2013-03-04 08:30:00,
2013-03-04 02:35:00,7.9,3.0,30.04,WNW,292,0.0,0.0,80,0.00,,,0.00,WUHU21623XXSP,2013-03-04 08:35:00,
2013-03-04 02:40:00,7.7,2.8,30.05,WNW,292,0.0,0.0,80,0.00,,,0.00,WUHU21623XXSP,2013-03-04 08:40:00,
2013-03-04 02:45:00,7.5,2.7,30.04,WNW,292,0.0,0.0,80,0.00,,,0.00,WUHU21623XXSP,2013-03-04 08:45:00,
2013-03-04 02:50:00,7.5,2.7,30.04,NW,315,0.0,0.0,80,0.00,,,0.00,WUHU21623XXSP,2013-03-04 08:50:00,
2013-03-04 02:55:00,7.3,2.5,30.04,NW,315,0.0,0.0,80,0.00,,,0.00,WUHU21623XXSP,2013-03-04 08:55:00,
2013-03-04 03:00:00,7.3,2.5,30.04,NW,315,0.0,0.0,80,0.00,,,0.00,WUHU21623XXSP,2013-03-04 09:00:00,
2013-03-04 03:05:00,7.3,2.5,30.03,NW,315,0.0,0.0,80,0.00,,,0.00,WUHU21623XXSP,2013-03-04 09:05:00,
2013-03-04 03:10:00,7.3,2.5,30.04,NW,315,0.0,0.0,80,0.00,,,0.00,WUHU21623XXSP,2013-03-04 09:10:00,
2013-03-04 03:15:00,7.3,2.7,30.03,NW,315,0.0,0.0,81,0.00,,,0.00,WUHU21623XXSP,2013-03-04 09:15:00,
2013-03-04 03:20:00,7.2,2.6,30.03,NW,315,0.0,0.0,81,0.00,,,0.00,WUHU21623XXSP,2013-03-04 09:20:00,
2013-03-04 03:25:00,7.2,2.6,30.03,NW,315,0.0,0.0,81,0.00,,,0.00,WUHU21623XXSP,2013-03-04 09:25:00,
2013-03-04 03:30:00,7.3,2.7,30.03,NW,315,0.0,0.0,81,0.00,,,0.00,WUHU21623XXSP,2013-03-04 09:30:00,
2013-03-04 03:35:00,7.5,2.9,30.03,WSW,247,0.0,0.0,81,0.00,,,0.00,WUHU21623XXSP,2013-03-04 09:35:00,
2013-03-04 03:40:00,8.2,3.6,30.03,WSW,247,0.0,0.0,81,0.00,,,0.00,WUHU21623XXSP,2013-03-04 09:40:00,
2013-03-04 03:45:00,8.2,3.6,30.03,WSW,247,0.0,0.0,81,0.00,,,0.00,WUHU21623XXSP,2013-03-04 09:45:00,
2013-03-04 03:50:00,8.2,3.4,30.03,WSW,247,0.0,0.0,80,0.00,,,0.00,WUHU21623XXSP,2013-03-04 09:50:00,
2013-03-04 03:55:00,8.2,3.6,30.03,WSW,247,0.0,0.0,81,0.00,,,0.00,WUHU21623XXSP,2013-03-04 09:55:00,
2013-03-04 04:00:00,8.1,3.4,30.03,WSW,247,0.0,0.0,80,0.00,,,0.00,WUHU21623XXSP,2013-03-04 10:00:00,
2013-03-04 04:05:00,8.2,3.4,30.03,WSW,247,0.0,0.0,80,0.00,,,0.00,WUHU21623XXSP,2013-03-04 10:05:00,
2013-03-04 04:10:00,8.1,3.2,30.03,SSW,202,0.0,0.0,80,0.00,,,0.00,WUHU21623XXSP,2013-03-04 10:10:00,
2013-03-04 04:15:00,8.1,3.2,30.03,NE,45,0.0,0.0,80,0.00,,,0.00,WUHU21623XXSP,2013-03-04 10:15:00,
2013-03-04 04:20:00,7.9,3.0,30.03,NE,45,0.0,0.0,80,0.00,,,0.00,WUHU21623XXSP,2013-03-04 10:20:00,
2013-03-04 04:25:00,7.7,3.1,30.03,NE,45,0.0,0.0,81,0.00,,,0.00,WUHU21623XXSP,2013-03-04 10:25:00,
2013-03-04 04:30:00,7.7,3.1,30.03,NW,315,0.0,0.0,81,0.00,,,0.00,WUHU21623XXSP,2013-03-04 10:30:00,
2013-03-04 04:35:00,8.6,4.2,30.03,NW,315,0.0,0.0,82,0.00,,,0.00,WUHU21623XXSP,2013-03-04 10:35:00,
2013-03-04 04:40:00,9.1,4.5,30.03,North,0,0.0,0.0,81,0.00,,,0.00,WUHU21623XXSP,2013-03-04 10:40:00,
2013-03-04 04:45:00,9.3,4.5,30.03,North,0,0.0,0.0,81,0.00,,,0.00,WUHU21623XXSP,2013-03-04 10:45:00,
2013-03-04 04:50:00,9.7,5.0,30.03,SE,135,0.0,0.0,81,0.00,,,0.00,WUHU21623XXSP,2013-03-04 10:50:00,
2013-03-04 04:55:00,10.6,6.1,30.03,ESE,112,0.0,0.0,82,0.00,,,0.00,WUHU21623XXSP,2013-03-04 10:55:00,
2013-03-04 05:00:00,10.6,5.8,30.02,ESE,112,0.0,0.0,81,0.00,,,0.00,WUHU21623XXSP,2013-03-04 11:00:00,
2013-03-04 05:05:00,11.1,6.3,30.02,ESE,112,0.0,0.0,81,0.00,,,0.00,WUHU21623XXSP,2013-03-04 11:05:00,
2013-03-04 05:10:00,11.8,7.1,30.03,SE,135,0.0,0.0,81,0.00,,,0.00,WUHU21623XXSP,2013-03-04 11:10:00,
2013-03-04 05:15:00,12.7,8.0,30.03,SE,135,1.8,2.0,81,0.00,,,0.00,WUHU21623XXSP,2013-03-04 11:15:00,
2013-03-04 05:20:00,13.3,8.5,30.03,SSE,157,0.0,2.0,81,0.00,,,0.00,WUHU21623XXSP,2013-03-04 11:20:00,
2013-03-04 05:25:00,13.8,8.8,30.03,ESE,112,0.0,0.0,80,0.00,,,0.00,WUHU21623XXSP,2013-03-04 11:25:00,
2013-03-04 05:30:00,13.6,8.3,30.02,ESE,112,0.0,0.0,79,0.00,,,0.00,WUHU21623XXSP,2013-03-04 11:30:00,
2013-03-04 05:35:00,13.6,8.3,30.03,ENE,67,0.0,0.0,79,0.00,,,0.00,WUHU21623XXSP,2013-03-04 11:35:00,
2013-03-04 05:40:00,13.6,8.3,30.02,ESE,112,0.0,0.0,79,0.00,,,0.00,WUHU21623XXSP,2013-03-04 11:40:00,
2013-03-04 05:45:00,13.8,8.5,30.03,SE,135,0.0,0.0,79,0.00,,,0.00,WUHU21623XXSP,2013-03-04 11:45:00,
2013-03-04 05:50:00,14.2,8.8,30.03,ESE,112,0.0,0.0,79,0.00,,,0.00,WUHU21623XXSP,2013-03-04 11:50:00,
2013-03-04 05:55:00,14.7,9.4,30.03,ESE,112,0.0,1.3,79,0.00,,,0.00,WUHU21623XXSP,2013-03-04 11:55:00,
2013-03-04 06:00:00,14.9,9.6,30.03,ESE,112,0.0,1.3,79,0.00,,,0.00,WUHU21623XXSP,2013-03-04 12:00:00,
2013-03-04 06:05:00,15.3,9.9,30.03,ESE,112,0.0,0.0,79,0.00,,,0.00,WUHU21623XXSP,2013-03-04 12:05:00,
2013-03-04 06:10:00,15.6,10.3,30.02,SE,135,1.6,1.6,79,0.00,,,0.00,WUHU21623XXSP,2013-03-04 12:10:00,
2013-03-04 06:15:00,16.0,10.6,30.03,ESE,112,3.1,3.1,79,0.00,,,0.00,WUHU21623XXSP,2013-03-04 12:15:00,
2013-03-04 06:20:00,16.2,10.8,30.03,ESE,112,0.0,3.1,79,0.00,,,0.00,WUHU21623XXSP,2013-03-04 12:20:00,
2013-03-04 06:25:00,16.5,10.9,30.03,East,90,2.2,2.2,79,0.00,,,0.00,WUHU21623XXSP,2013-03-04 12:25:00,
2013-03-04 06:30:00,16.3,10.6,30.03,East,90,1.8,2.2,78,0.00,,,0.00,WUHU21623XXSP,2013-03-04 12:30:00,
2013-03-04 06:35:00,16.3,10.6,30.03,East,90,2.7,2.7,78,0.00,,,0.00,WUHU21623XXSP,2013-03-04 12:35:00,
2013-03-04 06:40:00,16.3,10.6,30.03,East,90,0.0,2.7,78,0.00,,,0.00,WUHU21623XXSP,2013-03-04 12:40:00,
2013-03-04 06:45:00,16.5,11.1,30.03,East,90,0.0,1.6,79,0.00,,,0.00,WUHU21623XXSP,2013-03-04 12:45:00,
2013-03-04 06:50:00,16.7,11.0,30.03,East,90,2.0,2.2,78,0.00,,,0.00,WUHU21623XXSP,2013-03-04 12:50:00,
2013-03-04 06:55:00,16.9,11.1,30.03,ESE,112,1.3,2.2,78,0.00,,,0.00,WUHU21623XXSP,2013-03-04 12:55:00,
2013-03-04 07:00:00,16.9,11.1,30.03,ESE,112,0.0,2.2,78,0.00,,,0.00,WUHU21623XXSP,2013-03-04 13:00:00,
2013-03-04 07:05:00,17.2,11.5,30.03,ESE,112,1.8,3.6,78,0.00,,,0.00,WUHU21623XXSP,2013-03-04 13:05:00,
2013-03-04 07:10:00,17.2,11.5,30.03,ESE,112,2.5,3.6,78,0.00,,,0.00,WUHU21623XXSP,2013-03-04 13:10:00,
2013-03-04 07:15:00,17.4,11.6,30.03,ESE,112,0.0,2.5,78,0.00,,,0.00,WUHU21623XXSP,2013-03-04 13:15:00,
2013-03-04 07:20:00,17.8,12.0,30.03,East,90,2.5,2.5,78,0.00,,,0.00,WUHU21623XXSP,2013-03-04 13:20:00,
2013-03-04 07:25:00,18.0,12.1,30.03,ESE,112,1.8,2.5,78,0.00,,,0.00,WUHU21623XXSP,2013-03-04 13:25:00,
2013-03-04 07:30:00,18.1,12.1,30.03,East,90,0.0,1.8,78,0.00,,,0.00,WUHU21623XXSP,2013-03-04 13:30:00,
2013-03-04 07:35:00,18.3,12.2,30.03,SE,135,2.5,2.5,77,0.00,,,0.00,WUHU21623XXSP,2013-03-04 13:35:00,
2013-03-04 07:40:00,18.7,12.6,30.03,ESE,112,0.9,2.5,77,0.00,,,0.00,WUHU21623XXSP,2013-03-04 13:40:00,
2013-03-04 07:45:00,19.0,12.9,30.03,SE,135,2.0,2.0,77,0.00,,,0.00,WUHU21623XXSP,2013-03-04 13:45:00,
2013-03-04 07:50:00,19.4,13.0,30.03,SE,135,0.9,3.1,76,0.00,,,0.00,WUHU21623XXSP,2013-03-04 13:50:00,
2013-03-04 07:55:00,19.9,13.5,30.03,SE,135,0.0,3.1,76,0.00,,,0.00,WUHU21623XXSP,2013-03-04 13:55:00,
2013-03-04 08:00:00,20.1,13.7,30.03,SSE,157,2.5,2.5,76,0.00,,,0.00,WUHU21623XXSP,2013-03-04 14:00:00,
2013-03-04 08:05:00,20.5,13.9,30.03,ESE,112,0.0,3.1,76,0.00,,,0.00,WUHU21623XXSP,2013-03-04 14:05:00,
2013-03-04 08:10:00,20.8,14.1,30.03,ESE,112,0.0,3.8,75,0.00,,,0.00,WUHU21623XXSP,2013-03-04 14:10:00,
2013-03-04 08:15:00,21.4,14.6,30.03,ESE,112,2.0,3.8,75,0.00,,,0.00,WUHU21623XXSP,2013-03-04 14:15:00,
2013-03-04 08:20:00,21.4,14.6,30.03,ENE,67,2.2,8.3,75,0.00,,,0.00,WUHU21623XXSP,2013-03-04 14:20:00,
2013-03-04 08:25:00,21.6,14.8,30.03,SE,135,6.3,8.3,75,0.00,,,0.00,WUHU21623XXSP,2013-03-04 14:25:00,
2013-03-04 08:30:00,21.7,14.7,30.02,ESE,112,6.3,6.3,74,0.00,,,0.00,WUHU21623XXSP,2013-03-04 14:30:00,
2013-03-04 08:35:00,22.1,15.0,30.03,East,90,0.0,6.9,74,0.00,,,0.00,WUHU21623XXSP,2013-03-04 14:35:00,
2013-03-04 08:40:00,22.5,15.4,30.02,ESE,112,2.9,6.9,74,0.00,,,0.00,WUHU21623XXSP,2013-03-04 14:40:00,
2013-03-04 08:45:00,22.8,15.8,30.02,ESE,112,7.4,7.4,74,0.00,,,0.00,WUHU21623XXSP,2013-03-04 14:45:00,
2013-03-04 08:50:00,23.2,16.1,30.02,ESE,112,10.3,10.3,74,0.00,,,0.00,WUHU21623XXSP,2013-03-04 14:50:00,
2013-03-04 08:55:00,23.5,16.1,30.02,ENE,67,6.0,10.3,73,0.00,,,0.00,WUHU21623XXSP,2013-03-04 14:55:00,
2013-03-04 09:00:00,23.7,16.3,30.02,East,90,11.6,11.6,73,0.00,,,0.00,WUHU21623XXSP,2013-03-04 15:00:00,
2013-03-04 09:05:00,23.7,16.3,30.02,ESE,112,9.6,11.6,73,0.00,,,0.00,WUHU21623XXSP,2013-03-04 15:05:00,
2013-03-04 09:10:00,23.9,16.5,30.01,East,90,7.4,9.6,73,0.00,,,0.00,WUHU21623XXSP,2013-03-04 15:10:00,
2013-03-04 09:15:00,23.9,16.5,30.01,ESE,112,13.6,13.6,73,0.00,,,0.00,WUHU21623XXSP,2013-03-04 15:15:00,
2013-03-04 09:20:00,23.9,16.5,30.01,East,90,12.5,13.6,73,0.00,,,0.00,WUHU21623XXSP,2013-03-04 15:20:00,
2013-03-04 09:25:00,24.1,17.0,30.01,ESE,112,12.1,15.9,74,0.00,,,0.00,WUHU21623XXSP,2013-03-04 15:25:00,
2013-03-04 09:30:00,24.1,17.0,30.01,East,90,9.6,15.9,74,0.00,,,0.00,WUHU21623XXSP,2013-03-04 15:30:00,
2013-03-04 09:35:00,24.4,17.3,30.02,East,90,5.6,10.5,74,0.00,,,0.00,WUHU21623XXSP,2013-03-04 15:35:00,
2013-03-04 09:40:00,24.6,17.1,30.01,ESE,112,13.2,13.2,73,0.00,,,0.00,WUHU21623XXSP,2013-03-04 15:40:00,
2013-03-04 09:45:00,24.6,17.1,30.02,East,90,2.7,13.2,73,0.00,,,0.00,WUHU21623XXSP,2013-03-04 15:45:00,
2013-03-04 09:50:00,25.0,17.5,30.02,ESE,112,8.1,8.9,73,0.00,,,0.00,WUHU21623XXSP,2013-03-04 15:50:00,
2013-03-04 09:55:00,25.0,17.5,30.02,ESE,112,7.4,9.2,73,0.00,,,0.00,WUHU21623XXSP,2013-03-04 15:55:00,
2013-03-04 10:00:00,25.0,17.5,30.02,East,90,3.4,9.2,72,0.00,,,0.00,WUHU21623XXSP,2013-03-04 16:00:00,
2013-03-04 10:05:00,25.0,17.1,30.01,ESE,112,9.2,9.2,72,0.00,,,0.00,WUHU21623XXSP,2013-03-04 16:05:00,
2013-03-04 10:10:00,25.2,17.3,30.02,SE,135,9.4,14.3,72,0.00,,,0.00,WUHU21623XXSP,2013-03-04 16:10:00,
2013-03-04 10:15:00,25.2,17.3,30.02,ESE,112,9.2,14.3,72,0.00,,,0.00,WUHU21623XXSP,2013-03-04 16:15:00,
2013-03-04 10:20:00,25.5,17.7,30.01,East,90,8.1,9.2,72,0.00,,,0.00,WUHU21623XXSP,2013-03-04 16:20:00,
2013-03-04 10:25:00,25.5,17.4,30.02,ESE,112,12.5,12.5,71,0.00,,,0.00,WUHU21623XXSP,2013-03-04 16:25:00,
2013-03-04 10:30:00,25.5,17.1,30.01,ESE,112,4.7,12.5,70,0.00,,,0.00,WUHU21623XXSP,2013-03-04 16:30:00,
2013-03-04 10:35:00,25.7,17.2,30.02,ESE,112,12.3,12.3,70,0.00,,,0.00,WUHU21623XXSP,2013-03-04 16:35:00,
2013-03-04 10:40:00,26.2,17.4,30.01,SE,135,6.7,12.3,69,0.00,,,0.00,WUHU21623XXSP,2013-03-04 16:40:00,
2013-03-04 10:45:00,26.4,17.6,30.01,East,90,4.0,7.4,69,0.00,,,0.00,WUHU21623XXSP,2013-03-04 16:45:00,
2013-03-04 10:50:00,26.8,17.8,30.01,ESE,112,6.5,7.4,69,0.00,,,0.00,WUHU21623XXSP,2013-03-04 16:50:00,
2013-03-04 10:55:00,26.6,17.4,30.01,ESE,112,10.5,10.5,68,0.00,,,0.00,WUHU21623XXSP,2013-03-04 16:55:00,
2013-03-04 11:00:00,26.8,17.6,30.01,ENE,67,7.6,10.5,68,0.00,,,0.00,WUHU21623XXSP,2013-03-04 17:00:00,
2013-03-04 11:05:00,27.5,18.0,30.01,SE,135,10.3,10.3,67,0.00,,,0.00,WUHU21623XXSP,2013-03-04 17:05:00,
2013-03-04 11:10:00,27.5,18.0,30.01,East,90,4.7,10.3,67,0.00,,,0.00,WUHU21623XXSP,2013-03-04 17:10:00,
2013-03-04 11:15:00,27.5,18.0,30.01,East,90,7.4,9.6,67,0.00,,,0.00,WUHU21623XXSP,2013-03-04 17:15:00,
2013-03-04 11:20:00,28.0,18.5,30.01,East,90,6.9,8.9,67,0.00,,,0.00,WUHU21623XXSP,2013-03-04 17:20:00,
2013-03-04 11:25:00,28.0,18.5,30.01,SE,135,6.5,8.9,67,0.00,,,0.00,WUHU21623XXSP,2013-03-04 17:25:00,
2013-03-04 11:30:00,28.2,18.7,30.01,East,90,6.3,8.9,67,0.00,,,0.00,WUHU21623XXSP,2013-03-04 17:30:00,
2013-03-04 11:35:00,27.5,18.3,30.01,ESE,112,8.7,12.5,68,0.00,,,0.00,WUHU21623XXSP,2013-03-04 17:35:00,
2013-03-04 11:40:00,27.9,18.9,30.01,ESE,112,8.7,12.5,69,0.00,,,0.00,WUHU21623XXSP,2013-03-04 17:40:00,
2013-03-04 11:45:00,28.2,19.0,30.01,ENE,67,6.3,8.7,68,0.00,,,0.00,WUHU21623XXSP,2013-03-04 17:45:00,
2013-03-04 11:50:00,28.6,19.4,30.01,ESE,112,9.2,9.2,68,0.00,,,0.00,WUHU21623XXSP,2013-03-04 17:50:00,
2013-03-04 11:55:00,28.8,19.5,30.00,East,90,7.2,9.2,68,0.00,,,0.00,WUHU21623XXSP,2013-03-04 17:55:00,
2013-03-04 12:00:00,28.2,19.4,30.00,ESE,112,7.6,12.8,69,0.00,,,0.00,WUHU21623XXSP,2013-03-04 18:00:00,
2013-03-04 12:05:00,28.2,19.4,30.00,East,90,12.8,12.8,69,0.00,,,0.00,WUHU21623XXSP,2013-03-04 18:05:00,
2013-03-04 12:10:00,28.2,19.8,30.00,East,90,12.8,12.8,70,0.00,,,0.00,WUHU21623XXSP,2013-03-04 18:10:00,
2013-03-04 12:15:00,28.2,19.8,30.00,SE,135,8.3,12.8,70,0.00,,,0.00,WUHU21623XXSP,2013-03-04 18:15:00,
2013-03-04 12:20:00,28.2,19.8,30.00,ESE,112,15.2,15.2,70,0.00,,,0.00,WUHU21623XXSP,2013-03-04 18:20:00,
2013-03-04 12:25:00,28.6,19.9,30.00,ESE,112,12.3,15.2,70,0.00,,,0.00,WUHU21623XXSP,2013-03-04 18:25:00,
2013-03-04 12:29:00,28.8,20.3,29.99,ESE,112,5.8,15.2,70,0.00,,,0.00,WUHU21623XXSP,2013-03-04 18:29:00,
2013-03-04 12:34:00,28.9,20.1,29.99,SE,135,10.7,10.7,70,0.00,,,0.00,WUHU21623XXSP,2013-03-04 18:34:00,
2013-03-04 12:39:00,29.3,20.4,29.99,East,90,8.9,10.7,69,0.00,,,0.00,WUHU21623XXSP,2013-03-04 18:39:00,
2013-03-04 12:44:00,29.3,20.0,29.99,East,90,8.7,12.1,68,0.00,,,0.00,WUHU21623XXSP,2013-03-04 18:44:00,
2013-03-04 12:49:00,29.8,20.5,29.99,ESE,112,5.4,12.1,68,0.00,,,0.00,WUHU21623XXSP,2013-03-04 18:49:00,
2013-03-04 12:54:00,30.0,20.3,29.99,ESE,112,10.1,10.1,67,0.00,,,0.00,WUHU21623XXSP,2013-03-04 18:54:00,
2013-03-04 12:59:00,30.2,20.1,29.98,ENE,67,8.3,10.1,66,0.00,,,0.00,WUHU21623XXSP,2013-03-04 18:59:00,
2013-03-04 13:04:00,30.6,20.8,29.98,SE,135,7.2,8.3,67,0.00,,,0.00,WUHU21623XXSP,2013-03-04 19:04:00,
2013-03-04 13:09:00,30.9,21.0,29.98,SE,135,4.5,8.1,67,0.00,,,0.00,WUHU21623XXSP,2013-03-04 19:09:00,
2013-03-04 13:14:00,30.9,20.8,29.98,East,90,6.0,7.6,66,0.00,,,0.00,WUHU21623XXSP,2013-03-04 19:14:00,
2013-03-04 13:19:00,31.3,21.2,29.98,SE,135,4.5,6.0,66,0.00,,,0.00,WUHU21623XXSP,2013-03-04 19:19:00,
2013-03-04 13:24:00,31.3,21.2,29.97,SE,135,6.3,8.9,66,0.00,,,0.00,WUHU21623XXSP,2013-03-04 19:24:00,
2013-03-04 13:29:00,31.3,21.6,29.97,East,90,5.4,8.9,67,0.00,,,0.00,WUHU21623XXSP,2013-03-04 19:29:00,
2013-03-04 13:34:00,31.1,21.6,29.97,ESE,112,9.2,9.2,67,0.00,,,0.00,WUHU21623XXSP,2013-03-04 19:34:00,
2013-03-04 13:39:00,31.3,21.6,29.97,ESE,112,6.5,9.2,67,0.00,,,0.00,WUHU21623XXSP,2013-03-04 19:39:00,
2013-03-04 13:44:00,31.6,21.9,29.97,ESE,112,7.2,9.2,67,0.00,,,0.00,WUHU21623XXSP,2013-03-04 19:44:00,
2013-03-04 13:49:00,32.2,22.4,29.96,East,90,10.7,10.7,67,0.00,,,0.00,WUHU21623XXSP,2013-03-04 19:49:00,
2013-03-04 13:54:00,32.4,22.2,29.96,East,90,5.8,10.7,66,0.00,,,0.00,WUHU21623XXSP,2013-03-04 19:54:00,
2013-03-04 13:59:00,32.4,22.2,29.96,East,90,11.0,11.0,66,0.00,,,0.00,WUHU21623XXSP,2013-03-04 19:59:00,
2013-03-04 14:04:00,32.4,22.2,29.96,ESE,112,6.0,11.0,66,0.00,,,0.00,WUHU21623XXSP,2013-03-04 20:04:00,
2013-03-04 14:09:00,32.5,22.0,29.96,SE,135,6.7,6.7,65,0.00,,,0.00,WUHU21623XXSP,2013-03-04 20:09:00,
2013-03-04 14:14:00,32.2,21.7,29.96,East,90,8.3,8.3,65,0.00,,,0.00,WUHU21623XXSP,2013-03-04 20:14:00,
2013-03-04 14:19:00,31.6,21.6,29.96,ENE,67,10.5,10.5,66,0.00,,,0.00,WUHU21623XXSP,2013-03-04 20:19:00,
2013-03-04 14:24:00,31.6,21.9,29.96,ENE,67,11.6,12.8,67,0.00,,,0.00,WUHU21623XXSP,2013-03-04 20:24:00,
2013-03-04 14:30:00,31.6,21.6,29.96,East,90,12.1,13.0,66,0.00,,,0.00,WUHU21623XXSP,2013-03-04 20:30:00,
2013-03-04 14:35:00,31.8,21.7,29.96,SE,135,7.6,13.0,66,0.00,,,0.00,WUHU21623XXSP,2013-03-04 20:35:00,
2013-03-04 14:40:00,31.6,21.6,29.96,ESE,112,8.1,11.0,66,0.00,,,0.00,WUHU21623XXSP,2013-03-04 20:40:00,
2013-03-04 14:44:00,31.3,21.6,29.96,East,90,10.5,11.9,67,0.00,,,0.00,WUHU21623XXSP,2013-03-04 20:44:00,
2013-03-04 14:49:00,31.3,21.6,29.96,ESE,112,10.3,12.8,67,0.00,,,0.00,WUHU21623XXSP,2013-03-04 20:49:00,
2013-03-04 14:54:00,31.3,21.6,29.96,ESE,112,7.4,12.8,67,0.00,,,0.00,WUHU21623XXSP,2013-03-04 20:54:00,
2013-03-04 14:59:00,31.1,21.4,29.96,ESE,112,13.0,14.5,67,0.00,,,0.00,WUHU21623XXSP,2013-03-04 20:59:00,
2013-03-04 15:04:00,31.1,21.4,29.96,ENE,67,15.2,16.1,67,0.00,,,0.00,WUHU21623XXSP,2013-03-04 21:04:00,
2013-03-04 15:09:00,30.9,21.2,29.96,East,90,9.8,16.1,67,0.00,,,0.00,WUHU21623XXSP,2013-03-04 21:09:00,
2013-03-04 15:14:00,30.9,21.2,29.96,East,90,13.6,15.2,67,0.00,,,0.00,WUHU21623XXSP,2013-03-04 21:14:00,
2013-03-04 15:19:00,30.9,21.6,29.95,East,90,10.7,15.2,68,0.00,,,0.00,WUHU21623XXSP,2013-03-04 21:19:00,
2013-03-04 15:25:00,30.9,21.6,29.95,ESE,112,11.4,14.5,68,0.00,,,0.00,WUHU21623XXSP,2013-03-04 21:25:00,
2013-03-04 15:29:00,30.9,21.2,29.95,East,90,16.3,16.3,67,0.00,,,0.00,WUHU21623XXSP,2013-03-04 21:29:00,
2013-03-04 15:34:00,30.9,21.2,29.95,East,90,11.6,16.3,67,0.00,,,0.00,WUHU21623XXSP,2013-03-04 21:34:00,
2013-03-04 15:39:00,31.1,21.4,29.95,East,90,8.1,16.6,67,0.00,,,0.00,WUHU21623XXSP,2013-03-04 21:39:00,
2013-03-04 15:44:00,31.3,21.6,29.95,East,90,10.5,16.6,67,0.00,,,0.00,WUHU21623XXSP,2013-03-04 21:44:00,
2013-03-04 15:49:00,31.3,21.6,29.95,East,90,12.3,13.0,67,0.00,,,0.00,WUHU21623XXSP,2013-03-04 21:49:00,
2013-03-04 15:54:00,31.3,21.6,29.96,ENE,67,10.5,13.0,67,0.00,,,0.00,WUHU21623XXSP,2013-03-04 21:54:00,
2013-03-04 15:59:00,31.3,21.6,29.96,East,90,11.4,12.3,67,0.00,,,0.00,WUHU21623XXSP,2013-03-04 21:59:00,
2013-03-04 16:04:00,31.1,21.4,29.96,East,90,8.5,11.4,67,0.00,,,0.00,WUHU21623XXSP,2013-03-04 22:04:00,
2013-03-04 16:09:00,31.3,21.9,29.96,East,90,12.1,12.1,68,0.00,,,0.00,WUHU21623XXSP,2013-03-04 22:09:00,
2013-03-04 16:14:00,31.3,21.6,29.96,ESE,112,6.7,12.1,67,0.00,,,0.00,WUHU21623XXSP,2013-03-04 22:14:00,
2013-03-04 16:19:00,31.3,21.6,29.96,ESE,112,6.7,10.3,67,0.00,,,0.00,WUHU21623XXSP,2013-03-04 22:19:00,
2013-03-04 16:24:00,31.3,21.4,29.95,East,90,7.8,11.0,68,0.00,,,0.00,WUHU21623XXSP,2013-03-04 22:24:00,
2013-03-04 16:29:00,31.1,22.1,29.94,East,90,6.9,11.0,69,0.00,,,0.00,WUHU21623XXSP,2013-03-04 22:29:00,
2013-03-04 16:35:00,30.9,21.9,29.94,East,90,9.2,12.8,69,0.00,,,0.00,WUHU21623XXSP,2013-03-04 22:35:00,
2013-03-04 16:39:00,30.7,21.7,29.94,East,90,11.0,12.8,69,0.00,,,0.00,WUHU21623XXSP,2013-03-04 22:39:00,
2013-03-04 16:45:00,30.7,21.7,29.94,East,90,5.1,11.0,69,0.00,,,0.00,WUHU21623XXSP,2013-03-04 22:45:00,
2013-03-04 16:49:00,30.7,22.1,29.94,ENE,67,9.8,15.2,70,0.00,,,0.00,WUHU21623XXSP,2013-03-04 22:49:00,
2013-03-04 16:55:00,30.7,22.1,29.95,East,90,13.0,15.2,70,0.00,,,0.00,WUHU21623XXSP,2013-03-04 22:55:00,
2013-03-04 16:59:00,30.6,21.7,29.94,ENE,67,11.9,13.0,68,0.00,,,0.00,WUHU21623XXSP,2013-03-04 22:59:00,
2013-03-04 17:05:00,30.4,21.0,29.94,East,90,8.7,14.3,68,0.00,,,0.00,WUHU21623XXSP,2013-03-04 23:05:00,
2013-03-04 17:10:00,30.4,21.4,29.94,East,90,15.2,15.2,69,0.00,,,0.00,WUHU21623XXSP,2013-03-04 23:10:00,
2013-03-04 17:15:00,30.4,21.4,29.95,East,90,10.7,15.2,69,0.00,,,0.00,WUHU21623XXSP,2013-03-04 23:15:00,
2013-03-04 17:20:00,30.0,21.2,29.95,East,90,10.7,14.1,70,0.00,,,0.00,WUHU21623XXSP,2013-03-04 23:20:00,
2013-03-04 17:25:00,30.0,21.4,29.94,East,90,13.0,13.0,71,0.00,,,0.00,WUHU21623XXSP,2013-03-04 23:25:00,
2013-03-04 17:30:00,30.0,21.4,29.95,East,90,10.5,18.3,70,0.00,,,0.00,WUHU21623XXSP,2013-03-04 23:30:00,
2013-03-04 17:35:00,30.0,21.4,29.95,ESE,112,15.0,18.3,70,0.00,,,0.00,WUHU21623XXSP,2013-03-04 23:35:00,
2013-03-04 17:40:00,29.8,21.4,29.95,ESE,112,10.5,15.0,71,0.00,,,0.00,WUHU21623XXSP,2013-03-04 23:40:00,
2013-03-04 17:45:00,29.5,21.1,29.95,ESE,112,10.5,10.5,70,0.00,,,0.00,WUHU21623XXSP,2013-03-04 23:45:00,
2013-03-04 17:50:00,29.5,21.2,29.95,East,90,11.2,11.2,71,0.00,,,0.00,WUHU21623XXSP,2013-03-04 23:50:00,
2013-03-04 17:55:00,29.1,21.2,29.95,East,90,16.3,16.3,72,0.00,,,0.00,WUHU21623XXSP,2013-03-04 23:55:00,
2013-03-04 18:00:00,29.3,21.4,29.95,ESE,112,9.2,16.3,72,0.00,,,0.00,WUHU21623XXSP,2013-03-05 00:00:00,
2013-03-04 18:05:00,29.3,21.4,29.95,ESE,112,6.7,16.3,72,0.00,,,0.00,WUHU21623XXSP,2013-03-05 00:05:00,
2013-03-04 18:10:00,29.1,21.5,29.95,ESE,112,15.9,15.9,73,0.00,,,0.00,WUHU21623XXSP,2013-03-05 00:10:00,
2013-03-04 18:15:00,28.9,21.3,29.95,East,90,7.2,15.9,73,0.00,,,0.00,WUHU21623XXSP,2013-03-05 00:15:00,
2013-03-04 18:20:00,28.9,21.7,29.96,ESE,112,8.1,10.7,74,0.00,,,0.00,WUHU21623XXSP,2013-03-05 00:20:00,
2013-03-04 18:25:00,28.9,21.7,29.96,East,90,12.1,12.1,74,0.00,,,0.00,WUHU21623XXSP,2013-03-05 00:25:00,
2013-03-04 18:30:00,28.8,21.5,29.96,East,90,11.9,12.1,74,0.00,,,0.00,WUHU21623XXSP,2013-03-05 00:30:00,
2013-03-04 18:35:00,28.8,21.5,29.96,East,90,11.6,11.9,74,0.00,,,0.00,WUHU21623XXSP,2013-03-05 00:35:00,
2013-03-04 18:40:00,28.6,21.6,29.96,East,90,6.5,11.6,75,0.00,,,0.00,WUHU21623XXSP,2013-03-05 00:40:00,
2013-03-04 18:45:00,28.6,21.6,29.97,East,90,11.4,11.4,75,0.00,,,0.00,WUHU21623XXSP,2013-03-05 00:45:00,
2013-03-04 18:50:00,28.6,21.6,29.97,East,90,7.4,11.4,75,0.00,,,0.00,WUHU21623XXSP,2013-03-05 00:50:00,
2013-03-04 18:55:00,28.6,21.6,29.97,ESE,112,5.4,11.4,75,0.00,,,0.00,WUHU21623XXSP,2013-03-05 00:55:00,
2013-03-04 19:00:00,28.6,21.6,29.98,East,90,5.4,11.4,75,0.00,,,0.00,WUHU21623XXSP,2013-03-05 01:00:00,
2013-03-04 19:05:00,28.6,21.9,29.97,East,90,6.3,8.3,76,0.00,,,0.00,WUHU21623XXSP,2013-03-05 01:05:00,
2013-03-04 19:10:00,28.2,21.9,29.97,ESE,112,10.3,10.3,77,0.00,,,0.00,WUHU21623XXSP,2013-03-05 01:10:00,
2013-03-04 19:15:00,28.2,22.5,29.98,ENE,67,8.9,10.3,79,0.00,,,0.00,WUHU21623XXSP,2013-03-05 01:15:00,
2013-03-04 19:20:00,28.2,22.8,29.98,ESE,112,8.9,9.2,80,0.00,,,0.00,WUHU21623XXSP,2013-03-05 01:20:00,
2013-03-04 19:25:00,28.2,23.1,29.98,ENE,67,9.2,9.2,81,0.00,,,0.00,WUHU21623XXSP,2013-03-05 01:25:00,
2013-03-04 19:30:00,28.0,22.9,29.98,East,90,10.3,10.3,81,0.00,,,0.00,WUHU21623XXSP,2013-03-05 01:30:00,
2013-03-04 19:35:00,28.0,23.2,29.98,ENE,67,13.2,13.2,82,0.00,,,0.00,WUHU21623XXSP,2013-03-05 01:35:00,
2013-03-04 19:40:00,27.7,22.9,29.98,East,90,8.3,13.2,82,0.00,,,0.00,WUHU21623XXSP,2013-03-05 01:40:00,
2013-03-04 19:45:00,27.7,22.9,29.98,NE,45,6.9,12.3,82,0.00,,,0.00,WUHU21623XXSP,2013-03-05 01:45:00,
2013-03-04 19:50:00,27.7,22.9,29.98,East,90,5.4,12.3,82,0.00,,,0.00,WUHU21623XXSP,2013-03-05 01:50:00,
2013-03-04 19:55:00,27.5,22.7,29.98,ESE,112,11.4,12.3,82,0.00,,,0.00,WUHU21623XXSP,2013-03-05 01:55:00,
2013-03-04 20:00:00,27.5,22.7,29.98,ESE,112,7.4,11.4,82,0.00,,,0.00,WUHU21623XXSP,2013-03-05 02:00:00,
2013-03-04 20:05:00,27.3,22.5,29.98,East,90,15.9,15.9,82,0.00,,,0.00,WUHU21623XXSP,2013-03-05 02:05:00,
2013-03-04 20:10:00,27.3,22.5,29.98,ENE,67,10.5,15.9,82,0.00,,,0.00,WUHU21623XXSP,2013-03-05 02:10:00,
2013-03-04 20:15:00,27.3,22.5,29.98,East,90,9.8,15.2,82,0.00,,,0.00,WUHU21623XXSP,2013-03-05 02:15:00,
2013-03-04 20:20:00,27.3,22.2,29.98,ESE,112,6.5,9.8,81,0.00,,,0.00,WUHU21623XXSP,2013-03-05 02:20:00,
2013-03-04 20:25:00,27.1,22.2,29.98,ESE,112,10.7,10.7,81,0.00,,,0.00,WUHU21623XXSP,2013-03-05 02:25:00,
2013-03-04 20:30:00,27.1,22.0,29.98,East,90,10.1,10.7,81,0.00,,,0.00,WUHU21623XXSP,2013-03-05 02:30:00,
2013-03-04 20:35:00,27.1,22.0,29.98,East,90,8.7,10.1,81,0.00,,,0.00,WUHU21623XXSP,2013-03-05 02:35:00,
2013-03-04 20:40:00,27.1,22.0,29.99,ENE,67,8.9,9.2,81,0.00,,,0.00,WUHU21623XXSP,2013-03-05 02:40:00,
2013-03-04 20:45:00,27.1,21.7,29.99,East,90,7.4,8.9,80,0.00,,,0.00,WUHU21623XXSP,2013-03-05 02:45:00,
2013-03-04 20:50:00,27.1,21.4,29.98,East,90,8.5,10.5,79,0.00,,,0.00,WUHU21623XXSP,2013-03-05 02:50:00,
2013-03-04 20:55:00,27.1,21.7,29.98,East,90,6.0,10.5,80,0.00,,,0.00,WUHU21623XXSP,2013-03-05 02:55:00,
2013-03-04 21:00:00,27.1,21.7,29.99,East,90,9.2,9.2,80,0.00,,,0.00,WUHU21623XXSP,2013-03-05 03:00:00,
2013-03-04 21:05:00,27.1,22.0,29.99,ENE,67,6.5,9.2,81,0.00,,,0.00,WUHU21623XXSP,2013-03-05 03:05:00,
2013-03-04 21:10:00,27.0,21.6,29.99,ENE,67,4.7,8.1,80,0.00,,,0.00,WUHU21623XXSP,2013-03-05 03:10:00,
2013-03-04 21:15:00,27.0,21.8,29.99,ENE,67,7.6,7.6,81,0.00,,,0.00,WUHU21623XXSP,2013-03-05 03:15:00,
2013-03-04 21:20:00,27.0,21.6,29.99,ENE,67,6.9,7.6,80,0.00,,,0.00,WUHU21623XXSP,2013-03-05 03:20:00,
2013-03-04 21:25:00,27.0,21.6,29.99,ENE,67,11.2,11.2,80,0.00,,,0.00,WUHU21623XXSP,2013-03-05 03:25:00,
2013-03-04 21:30:00,27.0,21.3,29.99,East,90,5.4,11.2,79,0.00,,,0.00,WUHU21623XXSP,2013-03-05 03:30:00,
2013-03-04 21:35:00,26.8,21.1,29.98,East,90,8.1,11.2,79,0.00,,,0.00,WUHU21623XXSP,2013-03-05 03:35:00,
2013-03-04 21:40:00,26.8,21.1,29.99,ESE,112,9.2,9.2,79,0.00,,,0.00,WUHU21623XXSP,2013-03-05 03:40:00,
2013-03-04 21:45:00,26.8,21.1,29.98,East,90,7.8,9.2,79,0.00,,,0.00,WUHU21623XXSP,2013-03-05 03:45:00,
2013-03-04 21:50:00,26.6,20.9,29.98,East,90,7.4,9.2,79,0.00,,,0.00,WUHU21623XXSP,2013-03-05 03:50:00,
2013-03-04 21:55:00,26.6,20.9,29.98,ENE,67,7.6,9.2,79,0.00,,,0.00,WUHU21623XXSP,2013-03-05 03:55:00,
2013-03-04 22:00:00,26.6,20.9,29.98,ENE,67,7.6,7.6,79,0.00,,,0.00,WUHU21623XXSP,2013-03-05 04:00:00,
2013-03-04 22:05:00,26.8,21.1,29.98,ENE,67,9.6,9.6,79,0.00,,,0.00,WUHU21623XXSP,2013-03-05 04:05:00,
2013-03-04 22:10:00,26.6,20.9,29.98,ENE,67,6.9,10.5,79,0.00,,,0.00,WUHU21623XXSP,2013-03-05 04:10:00,
2013-03-04 22:15:00,26.6,20.9,29.98,ENE,67,9.2,10.5,79,0.00,,,0.00,WUHU21623XXSP,2013-03-05 04:15:00,
2013-03-04 22:20:00,26.6,20.9,29.98,East,90,5.4,9.2,79,0.00,,,0.00,WUHU21623XXSP,2013-03-05 04:20:00,
2013-03-04 22:25:00,26.6,20.9,29.98,East,90,5.4,9.2,79,0.00,,,0.00,WUHU21623XXSP,2013-03-05 04:25:00,
2013-03-04 22:30:00,26.6,20.9,29.98,East,90,5.4,5.4,79,0.00,,,0.00,WUHU21623XXSP,2013-03-05 04:30:00,
2013-03-04 22:35:00,26.8,21.1,29.98,ESE,112,7.6,7.6,79,0.00,,,0.00,WUHU21623XXSP,2013-03-05 04:35:00,
2013-03-04 22:40:00,26.8,21.1,29.98,East,90,7.6,7.6,79,0.00,,,0.00,WUHU21623XXSP,2013-03-05 04:40:00,
2013-03-04 22:45:00,26.8,21.1,29.98,ESE,112,4.5,7.6,79,0.00,,,0.00,WUHU21623XXSP,2013-03-05 04:45:00,
2013-03-04 22:50:00,26.8,21.4,29.98,ENE,67,5.1,10.3,80,0.00,,,0.00,WUHU21623XXSP,2013-03-05 04:50:00,
2013-03-04 22:55:00,26.8,21.4,29.98,ENE,67,6.9,10.3,80,0.00,,,0.00,WUHU21623XXSP,2013-03-05 04:55:00,
2013-03-04 23:00:00,26.8,21.4,29.98,ENE,67,7.8,7.8,80,0.00,,,0.00,WUHU21623XXSP,2013-03-05 05:00:00,
2013-03-04 23:05:00,26.8,21.4,29.98,ENE,67,10.5,10.5,80,0.00,,,0.00,WUHU21623XXSP,2013-03-05 05:05:00,
2013-03-04 23:10:00,26.8,21.4,29.98,NE,45,8.5,10.5,80,0.00,,,0.00,WUHU21623XXSP,2013-03-05 05:10:00,
2013-03-04 23:15:00,26.8,21.4,29.97,ENE,67,6.0,8.9,80,0.00,,,0.00,WUHU21623XXSP,2013-03-05 05:15:00,
2013-03-04 23:20:00,26.8,21.4,29.98,East,90,8.9,11.9,80,0.00,,,0.00,WUHU21623XXSP,2013-03-05 05:20:00,
2013-03-04 23:25:00,26.8,21.4,29.98,East,90,6.5,11.9,80,0.00,,,0.00,WUHU21623XXSP,2013-03-05 05:25:00,
2013-03-04 23:30:00,26.8,21.7,29.97,NE,45,11.6,11.6,81,0.00,,,0.00,WUHU21623XXSP,2013-03-05 05:30:00,
2013-03-04 23:35:00,26.8,21.7,29.96,NE,45,10.5,11.6,81,0.00,,,0.00,WUHU21623XXSP,2013-03-05 05:35:00,
2013-03-04 23:40:00,26.8,21.7,29.96,ENE,67,5.1,11.6,81,0.00,,,0.00,WUHU21623XXSP,2013-03-05 05:40:00,
2013-03-04 23:45:00,27.0,21.7,29.96,East,90,11.6,11.6,81,0.00,,,0.00,WUHU21623XXSP,2013-03-05 05:45:00,
2013-03-04 23:50:00,27.0,21.8,29.96,East,90,10.5,11.6,81,0.00,,,0.00,WUHU21623XXSP,2013-03-05 05:50:00,
2013-03-04 23:55:00,27.0,21.8,29.96,ENE,67,14.1,14.1,81,0.00,,,0.00,WUHU21623XXSP,2013-03-05 05:55:00,